Location: *
(50.8160°S, 176.0219°W)
Time: 03:01:47
(UTC+00:00)

USA 215 - Pass Details

Date: 19 May 2026
Orbit: 1098 x 1109 km, 123.0° (Epoch: 10 January)

Event Time Altitude Azimuth Distance (km) Brightness Sun altitude
Rises 15:02:56 0° 108° (ESE) 3,955 7.1 -39.8°
Reaches altitude 10° 15:05:28 10° 112° (ESE) 2,995 6.2 -39.5°
Enters shadow 15:10:08 43° 141° (SE) 1,526 4.1 -38.8°
